Lid_Strength_Index
-0 -1 -1 2 8 8 10 10 7 8 8 5 5 6 7 6 8 10 1 0 -0 -0 -1 -1 -1 -1 -2 -2 -1 -2 -2 -2 -2 -2 -2 -2 -2 -2 -2 -2 -2 -2 -2 -2 -2 -2 -2 -2 -2
2 1 1 4 9 11 10 8 9 7 6 5 5 5 6 7 4 4 3 -0 -1 -1 -1 -1 -1 -1 -2 -1 -2 -2 -2 -2 -2 -2 -2 -2 -2 -2 -2 -2 -2 -2 -2 -2 -2 -2 -2 -2 -2
2 2 4 7 9 11 10 8 7 6 5 5 6 4 5 6 4 3 1 -0 -1 -1 -1 -1 -1 -1 -1 -1 -2 -2 -2 -2 -2 -2 -2 -2 -2 -2 -2 -2 -2 -2 -2 -2 -2 -2 -2 -2 -1
4 2 3 9 10 8 9 7 6 6 6 5 5 7 4 2 3 1 -0 -0 -0 -1 -1 -1 -1 -1 -1 -2 -2 -2 -2 -2 -2 -2 -2 -2 -2 -1 -2 -1 -2 -2 -2 -1 -1 -1 -1 -1 -1
2 3 9 10 10 8 8 7 5 6 6 6 5 7 6 3 1 0 0 -0 -0 -1 -1 -1 -1 -1 -1 -2 -2 -2 -2 -2 -2 -2 -2 -2 -2 -1 -1 -1 -1 -2 -2 -1 -1 -1 -1 -1 -0
6 4 10 11 10 8 7 7 5 6 6 5 6 6 6 2 2 1 -0 -0 -1 -0 -1 -1 1 -0 -1 -2 -2 -2 -2 -2 -2 -2 -2 -2 -2 -2 -1 -1 -1 -1 -1 -1 -1 -1 -1 -1 -0
7 7 10 10 10 8 8 5 6 6 6 6 4 7 5 4 2 1 0 -0 -1 -1 -1 -1 -1 -1 1 -1 -1 -1 -2 -2 -2 -2 -2 -2 -2 -2 -2 -2 -1 -1 -1 -1 -1 -1 -1 -1 -1
5 6 9 9 10 9 7 5 5 6 7 4 3 6 6 3 1 1 0 -0 -0 -1 -1 -1 -1 -1 -1 -2 1 -0 -1 -2 -2 -1 -1 -1 -1 -1 -1 -1 -2 -1 -1 -1 -1 -1 -1 -1 -1
4 8 10 9 9 8 7 7 6 5 6 5 4 5 3 2 1 2 2 1 1 0 -0 -1 -0 -1 -1 -1 -0 1 0 0 -0 -0 0 0 -1 -1 -1 -1 -1 -1 -2 -2 -1 -1 -1 -2 -1
6 8 8 6 6 7 7 7 6 5 6 6 5 3 3 2 3 3 3 3 2 1 0 0 1 0 -1 -1 -1 -1 -1 -1 -1 -1 -1 -1 -1 -1 -1 0 0 -0 -1 -1 -2 -1 -2 -0 -1
7 9 8 7 6 6 7 7 6 6 7 5 5 4 4 4 3 3 3 2 2 1 0 -0 -0 0 0 -1 -1 -1 -1 -1 -1 -2 -2 -1 -1 -1 -1 -2 -1 -2 1 -1 -1 -1 -1 -1 -1
10 8 8 6 6 6 7 7 7 6 5 4 3 3 4 4 4 4 3 2 2 1 1 -0 -1 -1 -1 -1 -1 -1 -1 -1 -1 -1 -2 -1 -1 -1 -1 -1 -1 -1 -2 -1 -1 -1 -1 -1 -1
9 9 8 7 7 6 7 7 7 6 5 3 3 4 4 4 4 3 2 2 1 2 1 0 -1 -1 -1 -1 -1 -1 -1 -1 -1 -1 -1 -1 -1 -1 -1 -1 -1 -1 -1 -0 -0 -0 -1 -1 -1
9 8 8 7 8 7 7 8 7 6 4 4 4 4 4 4 3 3 3 2 2 1 1 0 -0 -1 -1 -0 -1 -1 -1 -1 -1 -1 -1 -1 -1 -1 -1 -1 -0 0 -0 -0 -1 -1 -1 -1 -1
9 9 9 8 8 9 7 8 8 7 5 5 5 4 4 4 3 3 2 2 2 1 1 1 0 -1 -0 -0 -0 -1 -1 -1 -1 -1 -1 -1 -1 -0 -0 -0 -1 -1 -1 -1 -1 -1 -1 -0 -0
10 10 12 9 8 9 9 10 7 7 6 6 5 5 4 4 3 2 2 2 1 1 1 0 0 -0 -0 -0 -0 -0 -0 -1 -1 -1 -1 -1 -1 -1 -1 -1 -1 -1 -1 -1 -1 -0 0 0 0
11 13 12 11 9 9 10 11 10 8 8 6 5 5 5 4 3 2 2 1 1 1 1 1 0 0 -0 -0 -0 -0 -1 -1 -1 -1 -1 -1 -1 -1 -1 -1 -1 -1 -1 -1 -0 -0 0 1 0
13 13 12 12 10 10 11 11 10 9 8 7 6 5 5 5 4 2 2 1 1 1 1 0 0 0 0 -0 -0 -0 -0 -0 -1 -1 -1 -1 -1 -1 -1 -1 -1 -1 -0 -0 -0 0 -0 0 0
11 12 12 11 10 10 11 11 10 9 9 8 7 7 6 5 4 4 3 3 3 1 1 1 1 0 0 1 1 1 1 0 0 -1 -1 -1 -1 -1 -1 -1 -1 -1 -0 0 -0 0 1 1 0
12 12 13 11 10 10 11 11 9 9 8 8 8 7 6 6 6 6 6 6 6 4 1 1 1 1 0 0 0 0 1 0 0 -1 -1 -1 -1 -1 -1 -0 -0 -0 0 0 0 0 1 1 0
12 13 13 13 11 11 12 12 12 11 10 9 8 7 7 7 7 6 6 6 6 6 5 5 5 3 1 0 0 0 0 0 1 0 0 -0 -1 -1 -1 -1 -0 -0 -0 0 0 0 1 2 1
13 11 12 12 12 15 12 14 13 13 12 12 9 8 7 7 7 7 7 5 5 5 5 5 5 4 4 4 1 1 2 2 1 1 0 -0 -1 -1 -1 -0 -1 -0 -0 0 0 0 1 1 2
13 11 12 13 14 14 13 14 12 13 12 11 11 10 9 9 9 8 7 7 6 5 5 4 4 4 4 3 4 2 1 1 1 0 1 0 -0 -1 -0 -1 -0 -0 -0 -0 0 0 0 1 1
10 11 11 12 13 17 16 15 14 12 12 12 11 9 9 9 9 8 7 6 6 6 5 5 5 5 5 5 5 4 4 4 3 3 3 2 1 0 0 -0 -0 -0 -0 0 -0 -0 0 0 1
10 12 16 17 18 18 17 17 15 12 10 12 11 11 9 9 8 7 7 7 7 7 6 6 6 6 6 5 5 5 5 4 4 4 3 3 2 2 2 2 1 2 3 3 1 2 2 2 2
11 13 16 20 19 18 17 18 14 12 12 11 10 10 9 8 8 7 7 7 7 7 7 7 7 7 7 7 6 6 6 5 5 5 4 3 2 3 4 4 4 5 5 5 4 5 5 4 3
12 14 11 15 17 17 16 14 13 11 12 12 12 11 10 9 8 8 8 7 8 8 8 8 8 9 9 8 8 7 7 7 6 6 5 4 5 6 6 5 6 6 6 6 5 5 6 5 5
10 10 16 15 20 21 17 17 16 13 13 12 11 11 10 10 9 9 8 8 8 9 9 9 9 9 9 9 9 9 8 8 7 7 7 7 7 7 7 7 7 7 7 6 6 6 6 6 6
11 12 12 13 15 18 19 17 13 13 13 12 12 10 10 10 9 8 8 8 8 8 9 9 9 9 9 9 9 9 9 9 8 8 8 8 7 7 7 7 7 8 7 7 7 7 6 6 6
10 11 11 15 17 15 16 15 10 11 11 10 10 10 9 9 8 7 8 8 8 8 8 8 8 8 9 8 8 9 9 8 8 8 8 7 7 7 7 7 7 7 7 7 7 7 7 7 7